�������l�o���
Date,Time,MP-1(��Sv/h),MP-2(��Sv/h),MP-3(��Sv/h),MP-4(��Sv/h),MP-5(��Sv/h),MP-6(��Sv/h),MP-7(��Sv/h),MP-8(��Sv/h),����,����(m/s),���J
2022/05/13,00:00,0.577,0.866,0.551,1.050,0.747,0.348,0.604,0.567,��,7.2,��
2022/05/13,00:10,0.578,0.864,0.551,1.050,0.746,0.348,0.603,0.568,��,6.4,��
2022/05/13,00:20,0.579,0.866,0.552,1.050,0.743,0.348,0.604,0.568,��,6.6,��
2022/05/13,00:30,0.579,0.865,0.553,1.049,0.747,0.347,0.603,0.567,��,6.7,�L
2022/05/13,00:40,0.575,0.864,0.551,1.053,0.747,0.348,0.603,0.567,��,6.2,��
2022/05/13,00:50,0.578,0.866,0.550,1.052,0.745,0.349,0.603,0.569,��,5.4,�L
2022/05/13,01:00,0.579,0.867,0.552,1.052,0.745,0.350,0.604,0.569,��,5.4,�L
2022/05/13,01:10,0.578,0.866,0.550,1.052,0.748,0.350,0.602,0.569,��,5.6,�L
2022/05/13,01:20,0.580,0.866,0.552,1.053,0.746,0.348,0.604,0.568,��,5.2,�L
2022/05/13,01:30,0.579,0.866,0.553,1.050,0.747,0.348,0.604,0.567,��,5.4,�L
2022/05/13,01:40,0.580,0.868,0.553,1.051,0.748,0.348,0.603,0.568,��,5.6,��
2022/05/13,01:50,0.582,0.869,0.552,1.053,0.746,0.349,0.604,0.566,��,5.8,�L
2022/05/13,02:00,0.578,0.866,0.552,1.049,0.745,0.350,0.605,0.568,��,5.6,�L
2022/05/13,02:10,0.580,0.866,0.552,1.053,0.747,0.349,0.603,0.567,��쐼,5.3,�L
2022/05/13,02:20,0.580,0.866,0.551,1.051,0.748,0.350,0.604,0.569,��,4.5,�L
2022/05/13,02:30,0.581,0.867,0.553,1.052,0.748,0.350,0.604,0.568,��,4.4,�L
2022/05/13,02:40,0.580,0.868,0.552,1.054,0.746,0.349,0.605,0.567,��,4.2,�L
2022/05/13,02:50,0.579,0.868,0.553,1.052,0.748,0.348,0.603,0.568,��쐼,3.6,�L
2022/05/13,03:00,0.581,0.866,0.552,1.052,0.747,0.350,0.603,0.568,��,4.2,�L
2022/05/13,03:10,0.581,0.867,0.553,1.053,0.747,0.350,0.604,0.568,��쐼,4.1,�L
2022/05/13,03:20,0.581,0.866,0.552,1.051,0.745,0.349,0.602,0.567,��쐼,4.7,�L
2022/05/13,03:30,0.579,0.864,0.551,1.050,0.746,0.351,0.603,0.566,��쐼,4.7,�L
2022/05/13,03:40,0.578,0.863,0.551,1.049,0.743,0.348,0.602,0.567,��쐼,5.0,�L
2022/05/13,03:50,0.577,0.862,0.550,1.047,0.739,0.348,0.600,0.566,��쐼,4.4,�L
2022/05/13,04:00,0.575,0.856,0.548,1.046,0.738,0.347,0.598,0.564,��쐼,4.2,�L
2022/05/13,04:10,0.572,0.853,0.544,1.043,0.732,0.346,0.596,0.561,��,4.1,�L
2022/05/13,04:20,0.571,0.852,0.542,1.043,0.731,0.347,0.596,0.560,��쐼,3.1,�L
2022/05/13,04:30,0.571,0.850,0.544,1.040,0.729,0.348,0.594,0.561,��,4.0,�L
2022/05/13,04:40,0.569,0.847,0.542,1.040,0.732,0.347,0.596,0.561,��,4.8,�L
2022/05/13,04:50,0.569,0.846,0.541,1.040,0.730,0.346,0.597,0.560,��,4.9,�L
2022/05/13,05:00,0.570,0.845,0.541,1.040,0.730,0.346,0.595,0.560,��,6.1,�L
2022/05/13,05:10,0.568,0.843,0.542,1.037,0.727,0.345,0.595,0.560,��,5.6,�L
2022/05/13,05:20,0.566,0.841,0.540,1.034,0.724,0.346,0.594,0.558,��쐼,6.0,�L
2022/05/13,05:30,0.565,0.841,0.540,1.033,0.724,0.345,0.593,0.560,��,6.6,�L
2022/05/13,05:40,0.565,0.839,0.540,1.029,0.723,0.344,0.593,0.559,��,6.1,�L
2022/05/13,05:50,0.565,0.839,0.539,1.030,0.723,0.345,0.593,0.559,��쐼,5.4,�L
2022/05/13,06:00,0.565,0.837,0.539,1.032,0.724,0.345,0.592,0.559,��쐼,6.0,�L
2022/05/13,06:10,0.566,0.839,0.540,1.031,0.724,0.346,0.592,0.559,��쐼,6.1,�L
2022/05/13,06:20,0.566,0.840,0.539,1.031,0.724,0.345,0.593,0.559,��쐼,5.6,�L
2022/05/13,06:30,0.565,0.841,0.540,1.032,0.724,0.345,0.593,0.560,��쐼,5.1,�L
2022/05/13,06:40,0.566,0.841,0.539,1.030,0.724,0.345,0.592,0.559,��쐼,5.1,�L
2022/05/13,06:50,0.565,0.843,0.540,1.029,0.725,0.344,0.592,0.558,��쐼,5.0,�L
2022/05/13,07:00,0.564,0.842,0.541,1.030,0.725,0.343,0.593,0.558,��,5.0,�L
2022/05/13,07:10,0.566,0.843,0.540,1.029,0.724,0.344,0.592,0.559,��,5.4,�L
2022/05/13,07:20,0.566,0.842,0.539,1.027,0.724,0.346,0.592,0.559,��,5.3,�L
2022/05/13,07:30,0.564,0.839,0.540,1.028,0.723,0.344,0.594,0.557,��,6.4,�L
2022/05/13,07:40,0.565,0.839,0.540,1.029,0.722,0.344,0.593,0.559,��,6.8,�L
2022/05/13,07:50,0.564,0.839,0.540,1.027,0.721,0.344,0.592,0.557,��,7.0,�L
2022/05/13,08:00,0.563,0.840,0.538,1.030,0.721,0.343,0.592,0.557,��,7.1,�L
2022/05/13,08:10,0.561,0.837,0.538,1.027,0.721,0.344,0.592,0.558,��,5.8,��
2022/05/13,08:20,0.564,0.835,0.538,1.029,0.722,0.342,0.592,0.559,��,6.4,��
2022/05/13,08:30,0.564,0.835,0.538,1.026,0.721,0.343,0.593,0.559,��,7.0,��
2022/05/13,08:40,0.563,0.837,0.538,1.027,0.722,0.343,0.594,0.559,��,6.3,��
2022/05/13,08:50,0.562,0.836,0.539,1.027,0.722,0.343,0.594,0.560,��쐼,6.3,��
2022/05/13,09:00,0.562,0.835,0.537,1.028,0.721,0.342,0.593,0.559,��,5.9,�L
2022/05/13,09:10,0.563,0.833,0.539,1.027,0.723,0.342,0.594,0.558,��,6.1,�L
2022/05/13,09:20,0.562,0.835,0.537,1.027,0.722,0.342,0.592,0.558,��,4.0,�L
2022/05/13,09:30,0.562,0.833,0.538,1.023,0.722,0.342,0.593,0.557,��,3.8,�L
2022/05/13,09:40,0.562,0.833,0.536,1.025,0.720,0.342,0.593,0.558,��,6.2,�L
2022/05/13,09:50,0.564,0.834,0.537,1.028,0.718,0.341,0.593,0.558,��,5.6,�L
2022/05/13,10:00,0.561,0.832,0.537,1.028,0.720,0.341,0.594,0.556,��,4.8,�L
2022/05/13,10:10,0.562,0.835,0.538,1.025,0.720,0.342,0.593,0.558,��쓌,5.2,�L
2022/05/13,10:20,0.561,0.831,0.536,1.025,0.718,0.342,0.594,0.557,��쓌,5.2,�L
2022/05/13,10:30,0.560,0.831,0.536,1.026,0.717,0.341,0.593,0.556,��쓌,5.3,�L
2022/05/13,10:40,0.559,0.831,0.536,1.025,0.718,0.342,0.593,0.557,��쓌,5.1,�L
2022/05/13,10:50,0.560,0.831,0.537,1.025,0.719,0.343,0.593,0.557,��쓌,5.7,�L
2022/05/13,11:00,0.562,0.830,0.536,1.025,0.717,0.342,0.593,0.558,��쓌,5.6,��
2022/05/13,11:10,0.560,0.833,0.537,1.028,0.719,0.342,0.593,0.558,��,6.2,��
2022/05/13,11:20,0.562,0.833,0.536,1.028,0.719,0.341,0.593,0.558,��쓌,8.3,��
2022/05/13,11:30,0.561,0.834,0.537,1.025,0.719,0.342,0.593,0.558,��쓌,7.3,��
2022/05/13,11:40,0.561,0.834,0.537,1.028,0.719,0.342,0.595,0.558,��,6.7,��
2022/05/13,11:50,0.560,0.833,0.537,1.026,0.719,0.342,0.593,0.558,��,6.5,�L
2022/05/13,12:00,0.561,0.834,0.537,1.027,0.720,0.343,0.594,0.558,��,5.2,�L
2022/05/13,12:10,0.561,0.836,0.538,1.025,0.720,0.344,0.595,0.558,��쓌,4.3,�L
2022/05/13,12:20,0.560,0.835,0.536,1.026,0.719,0.343,0.595,0.558,��쓌,4.2,�L
2022/05/13,12:30,0.562,0.835,0.535,1.025,0.722,0.343,0.595,0.558,��쓌,4.1,�L
2022/05/13,12:40,0.561,0.837,0.536,1.027,0.720,0.342,0.594,0.558,��쓌,3.6,�L
2022/05/13,12:50,0.561,0.835,0.536,1.026,0.721,0.345,0.595,0.558,��쓌,3.8,�L
2022/05/13,13:00,0.562,0.837,0.536,1.027,0.722,0.343,0.593,0.558,��쓌,2.6,�L
2022/05/13,13:10,0.561,0.836,0.539,1.027,0.721,0.341,0.594,0.559,��쓌,2.9,�L
2022/05/13,13:20,0.564,0.835,0.539,1.027,0.720,0.342,0.593,0.557,��쓌,2.6,�L
2022/05/13,13:30,0.563,0.833,0.537,1.028,0.721,0.342,0.595,0.557,��쓌,1.5,�L
2022/05/13,13:40,0.564,0.833,0.540,1.026,0.721,0.342,0.595,0.557,��쓌,1.9,�L
2022/05/13,13:50,0.563,0.831,0.537,1.026,0.721,0.343,0.594,0.557,��쓌,1.4,�L
2022/05/13,14:00,0.562,0.832,0.539,1.028,0.720,0.343,0.593,0.557,��쓌,1.1,�L
2022/05/13,14:10,0.560,0.830,0.536,1.027,0.721,0.343,0.594,0.557,��쓌,0.9,�L
2022/05/13,14:20,0.562,0.832,0.537,1.028,0.719,0.342,0.592,0.558,��쓌,0.6,�L
2022/05/13,14:30,0.561,0.831,0.539,1.026,0.718,0.343,0.593,0.556,-,CALM,�L
2022/05/13,14:40,0.558,0.829,0.535,1.026,0.720,0.343,0.592,0.557,-,CALM,�L
2022/05/13,14:50,0.560,0.829,0.534,1.029,0.718,0.342,0.593,0.557,-,CALM,�L
2022/05/13,15:00,0.558,0.830,0.536,1.026,0.717,0.342,0.592,0.556,-,CALM,�L
2022/05/13,15:10,0.559,0.831,0.534,1.025,0.715,0.341,0.591,0.557,-,CALM,�L
2022/05/13,15:20,0.560,0.829,0.534,1.025,0.716,0.342,0.593,0.556,�k��,0.6,�L
2022/05/13,15:30,0.557,0.829,0.534,1.025,0.715,0.342,0.592,0.555,�k,0.8,�L
2022/05/13,15:40,0.559,0.831,0.534,1.025,0.716,0.342,0.591,0.557,�k�k��,0.9,�L
2022/05/13,15:50,0.556,0.827,0.533,1.023,0.714,0.342,0.593,0.557,�k,0.9,�L
2022/05/13,16:00,0.556,0.826,0.534,1.023,0.715,0.342,0.590,0.556,�k,0.9,�L
2022/05/13,16:10,0.559,0.830,0.533,1.023,0.714,0.343,0.590,0.557,�k�k��,0.9,�L
2022/05/13,16:20,0.556,0.827,0.534,1.021,0.713,0.342,0.591,0.555,�k�k��,0.9,�L
2022/05/13,16:30,0.557,0.826,0.532,1.024,0.713,0.342,0.590,0.555,�k�k��,1.1,�L
2022/05/13,16:40,0.557,0.826,0.531,1.020,0.711,0.344,0.591,0.554,�k,0.8,�L
2022/05/13,16:50,0.556,0.827,0.533,1.023,0.712,0.342,0.590,0.557,�k,0.8,�L
2022/05/13,17:00,0.558,0.826,0.531,1.021,0.711,0.343,0.591,0.556,�k�k��,0.9,�L
2022/05/13,17:10,0.557,0.826,0.534,1.021,0.715,0.343,0.589,0.557,�k��,1.5,�L
2022/05/13,17:20,0.557,0.828,0.535,1.019,0.713,0.343,0.591,0.556,�k�k��,1.4,�L
2022/05/13,17:30,0.557,0.826,0.535,1.019,0.714,0.343,0.590,0.558,�k�k��,1.5,�L
2022/05/13,17:40,0.558,0.828,0.534,1.022,0.716,0.344,0.591,0.557,�k,0.9,�L
2022/05/13,17:50,0.558,0.829,0.535,1.022,0.718,0.344,0.590,0.556,�k�k��,1.5,�L
2022/05/13,18:00,0.557,0.828,0.535,1.020,0.716,0.344,0.590,0.556,�k�k��,1.4,�L
2022/05/13,18:10,0.558,0.829,0.537,1.021,0.715,0.343,0.590,0.556,�k�k��,1.7,�L
2022/05/13,18:20,0.558,0.829,0.536,1.022,0.716,0.346,0.590,0.558,�k��,1.2,�L
2022/05/13,18:30,0.558,0.828,0.535,1.019,0.715,0.344,0.590,0.557,�k��,2.0,�L
2022/05/13,18:40,0.560,0.830,0.535,1.019,0.716,0.345,0.590,0.557,�k��,1.5,�L
2022/05/13,18:50,0.558,0.828,0.535,1.022,0.717,0.344,0.591,0.555,�k�k��,1.4,�L
2022/05/13,19:00,0.557,0.827,0.536,1.019,0.717,0.345,0.590,0.557,�k�k��,1.7,�L
2022/05/13,19:10,0.559,0.829,0.537,1.021,0.716,0.344,0.589,0.556,�k�k��,1.5,�L
2022/05/13,19:20,0.556,0.829,0.537,1.017,0.717,0.345,0.590,0.556,�k�k��,2.0,�L
2022/05/13,19:30,0.558,0.830,0.536,1.020,0.716,0.346,0.591,0.556,�k�k��,1.7,�L
2022/05/13,19:40,0.559,0.827,0.535,1.018,0.713,0.344,0.587,0.556,-,CALM,�L
2022/05/13,19:50,0.559,0.827,0.538,1.019,0.714,0.345,0.589,0.554,-,CALM,�L
2022/05/13,20:00,0.559,0.825,0.537,1.016,0.714,0.346,0.588,0.556,-,CALM,�L
2022/05/13,20:10,0.557,0.823,0.537,1.017,0.712,0.345,0.588,0.556,-,CALM,�L
2022/05/13,20:20,0.557,0.823,0.537,1.015,0.713,0.345,0.587,0.555,��쐼,0.6,�L
2022/05/13,20:30,0.558,0.824,0.536,1.015,0.712,0.346,0.590,0.554,��쐼,0.6,�L
2022/05/13,20:40,0.558,0.824,0.535,1.015,0.712,0.346,0.588,0.557,�k�k��,0.8,�L
2022/05/13,20:50,0.556,0.824,0.536,1.013,0.712,0.344,0.587,0.556,�k�k��,1.2,�L
2022/05/13,21:00,0.557,0.824,0.536,1.013,0.713,0.345,0.586,0.556,�k��,0.8,�L
2022/05/13,21:10,0.558,0.823,0.537,1.013,0.713,0.345,0.587,0.556,-,CALM,�L
2022/05/13,21:20,0.557,0.826,0.535,1.013,0.712,0.345,0.589,0.558,�k��,1.2,�L
2022/05/13,21:30,0.559,0.823,0.534,1.014,0.713,0.345,0.588,0.555,���k��,0.8,�L
2022/05/13,21:40,0.558,0.823,0.534,1.012,0.710,0.344,0.587,0.557,�k��,1.1,�L
2022/05/13,21:50,0.557,0.826,0.535,1.013,0.713,0.345,0.588,0.556,�k��,0.6,�L
2022/05/13,22:00,0.558,0.823,0.535,1.012,0.710,0.344,0.588,0.556,�k��,0.6,�L
2022/05/13,22:10,0.557,0.824,0.535,1.012,0.714,0.344,0.588,0.555,-,CALM,�L
2022/05/13,22:20,0.555,0.824,0.534,1.012,0.711,0.345,0.587,0.555,�k�k��,0.6,�L
2022/05/13,22:30,0.556,0.824,0.536,1.010,0.711,0.344,0.588,0.555,-,CALM,�L
2022/05/13,22:40,0.556,0.823,0.534,1.010,0.710,0.344,0.586,0.554,��쐼,0.8,�L
2022/05/13,22:50,0.556,0.824,0.534,1.008,0.708,0.345,0.586,0.555,��,1.2,�L
2022/05/13,23:00,0.554,0.820,0.534,1.008,0.708,0.344,0.588,0.555,-,CALM,�L
2022/05/13,23:10,0.555,0.821,0.534,1.008,0.707,0.344,0.585,0.554,���쓌,0.8,�L
2022/05/13,23:20,0.554,0.818,0.532,1.003,0.706,0.344,0.585,0.552,�k�k��,1.5,�L
2022/05/13,23:30,0.554,0.815,0.533,1.004,0.705,0.343,0.584,0.553,�k�k��,1.2,�L
2022/05/13,23:40,0.548,0.813,0.532,0.996,0.701,0.342,0.582,0.551,�k�k��,2.2,�L
2022/05/13,23:50,0.546,0.809,0.532,0.993,0.702,0.341,0.581,0.551,�k�k��,2.0,�L
